Time,TemperatureF,DewpointF,PressureIn,WindDirection,WindDirectionDegrees,WindSpeedMPH,WindSpeedGustMPH,Humidity,HourlyPrecipIn,Conditions,Clouds,dailyrainin,SoftwareType,DateUTC
2013-05-14 00:01:00,34.7,7.9,29.74,NNE,33,0.0,0.0,32,0.00,,---,0.00,VWS V13.01,2013-05-14 04:01:00,
2013-05-14 00:05:00,34.0,7.9,29.74,NNE,33,0.0,0.0,33,0.00,,---,0.00,VWS V13.01,2013-05-14 04:05:00,
2013-05-14 00:09:00,34.0,9.9,29.74,NNE,33,0.0,0.0,36,0.00,,---,0.00,VWS V13.01,2013-05-14 04:09:00,
2013-05-14 00:15:00,34.3,7.6,29.74,NNE,24,0.0,0.0,32,0.00,,---,0.00,VWS V13.01,2013-05-14 04:15:00,
2013-05-14 00:21:00,34.2,7.4,29.74,NNE,32,0.0,0.0,32,0.00,,---,0.00,VWS V13.01,2013-05-14 04:21:00,
2013-05-14 00:27:00,33.4,8.1,29.74,NNE,32,0.0,0.0,34,0.00,,---,0.00,VWS V13.01,2013-05-14 04:27:00,
2013-05-14 00:32:00,32.5,7.9,29.74,NNE,32,0.0,0.0,35,0.00,,---,0.00,VWS V13.01,2013-05-14 04:32:00,
2013-05-14 00:37:00,31.6,8.4,29.74,NNE,32,0.0,0.0,37,0.00,,---,0.00,VWS V13.01,2013-05-14 04:37:00,
2013-05-14 00:43:00,31.1,9.6,29.74,NNE,32,0.0,0.0,40,0.00,,---,0.00,VWS V13.01,2013-05-14 04:43:00,
2013-05-14 00:48:00,30.9,9.4,29.77,NNE,32,0.0,0.0,40,0.00,,---,0.00,VWS V13.01,2013-05-14 04:48:00,
2013-05-14 00:53:00,30.4,8.4,29.77,NNE,32,0.0,0.0,39,0.00,,---,0.00,VWS V13.01,2013-05-14 04:53:00,
2013-05-14 01:00:00,30.6,9.1,29.77,NNE,32,0.0,0.0,40,0.00,,---,0.00,VWS V13.01,2013-05-14 05:00:00,
2013-05-14 01:06:00,31.1,10.7,29.77,NNE,32,0.0,0.0,42,0.00,,---,0.00,VWS V13.01,2013-05-14 05:06:00,
2013-05-14 01:11:00,30.9,11.6,29.77,NNE,32,0.0,0.0,44,0.00,,---,0.00,VWS V13.01,2013-05-14 05:11:00,
2013-05-14 01:16:00,30.7,12.4,29.77,NNE,32,0.0,0.0,46,0.00,,---,0.00,VWS V13.01,2013-05-14 05:16:00,
2013-05-14 01:22:00,30.4,13.1,29.77,NNE,32,0.0,0.0,48,0.00,,---,0.00,VWS V13.01,2013-05-14 05:22:00,
2013-05-14 01:27:00,30.6,14.6,29.77,NNE,32,0.0,0.0,51,0.00,,---,0.00,VWS V13.01,2013-05-14 05:27:00,
2013-05-14 01:34:00,31.1,18.5,29.77,NNE,32,0.0,0.0,59,0.00,,---,0.00,VWS V13.01,2013-05-14 05:34:00,
2013-05-14 01:40:00,30.2,19.1,29.77,NNE,32,0.0,0.0,63,0.00,,---,0.00,VWS V13.01,2013-05-14 05:40:00,
2013-05-14 01:46:00,29.5,18.5,29.77,NNE,32,0.0,0.0,63,0.00,,---,0.00,VWS V13.01,2013-05-14 05:46:00,
2013-05-14 01:51:00,29.3,18.3,29.77,NNE,32,0.0,0.0,63,0.00,,---,0.00,VWS V13.01,2013-05-14 05:51:00,
2013-05-14 01:56:00,29.3,18.3,29.77,NNE,32,0.0,0.0,63,0.00,,---,0.00,VWS V13.01,2013-05-14 05:56:00,
2013-05-14 02:01:00,29.7,18.2,29.77,NNE,32,0.0,0.0,62,0.00,,---,0.00,VWS V13.01,2013-05-14 06:01:00,
2013-05-14 02:06:00,29.7,17.9,29.77,NNE,32,0.0,0.0,61,0.00,,---,0.00,VWS V13.01,2013-05-14 06:06:00,
2013-05-14 02:12:00,29.7,18.6,29.77,NNE,32,0.0,0.0,63,0.00,,---,0.00,VWS V13.01,2013-05-14 06:12:00,
2013-05-14 02:18:00,29.3,20.7,29.77,NNE,32,0.0,0.0,70,0.00,,---,0.00,VWS V13.01,2013-05-14 06:18:00,
2013-05-14 02:24:00,28.8,19.2,29.77,NNE,32,0.0,0.0,67,0.00,,---,0.00,VWS V13.01,2013-05-14 06:24:00,
2013-05-14 02:30:00,29.1,21.6,29.77,NNE,32,0.0,0.0,73,0.00,,---,0.00,VWS V13.01,2013-05-14 06:30:00,
2013-05-14 02:36:00,28.8,22.5,29.77,NNE,32,0.0,0.0,77,0.00,,---,0.00,VWS V13.01,2013-05-14 06:36:00,
2013-05-14 02:41:00,28.4,22.4,29.77,NNE,32,0.0,0.0,78,0.00,,---,0.00,VWS V13.01,2013-05-14 06:41:00,
2013-05-14 02:46:00,28.2,21.6,29.77,NNE,32,0.0,0.0,76,0.00,,---,0.00,VWS V13.01,2013-05-14 06:46:00,
2013-05-14 02:52:00,28.2,21.6,29.77,NNE,32,0.0,0.0,76,0.00,,---,0.00,VWS V13.01,2013-05-14 06:52:00,
2013-05-14 02:58:00,27.5,20.6,29.77,NNE,32,0.0,0.0,75,0.00,,---,0.00,VWS V13.01,2013-05-14 06:58:00,
2013-05-14 03:03:00,27.1,20.3,29.77,NNE,32,0.0,0.0,75,0.00,,---,0.00,VWS V13.01,2013-05-14 07:03:00,
2013-05-14 03:08:00,27.3,20.5,29.77,NNE,32,0.0,0.0,75,0.00,,---,0.00,VWS V13.01,2013-05-14 07:08:00,
2013-05-14 03:14:00,27.3,20.1,29.77,NNE,32,0.0,0.0,74,0.00,,---,0.00,VWS V13.01,2013-05-14 07:14:00,
2013-05-14 03:19:00,27.9,20.7,29.77,NNE,32,0.0,0.0,74,0.00,,---,0.00,VWS V13.01,2013-05-14 07:19:00,
2013-05-14 03:24:00,28.4,22.4,29.77,NNE,32,0.0,0.0,78,0.00,,---,0.00,VWS V13.01,2013-05-14 07:24:00,
2013-05-14 03:29:00,28.4,22.7,29.77,NNE,32,0.0,0.0,79,0.00,,---,0.00,VWS V13.01,2013-05-14 07:29:00,
2013-05-14 03:34:00,28.2,22.0,29.77,NNE,32,0.0,0.0,77,0.00,,---,0.00,VWS V13.01,2013-05-14 07:34:00,
2013-05-14 03:40:00,28.9,22.6,29.77,NNE,32,0.0,0.0,77,0.00,,---,0.00,VWS V13.01,2013-05-14 07:40:00,
2013-05-14 03:45:00,28.4,21.8,29.77,NNE,32,0.0,0.0,76,0.00,,---,0.00,VWS V13.01,2013-05-14 07:45:00,
2013-05-14 03:50:00,28.2,21.3,29.77,NNE,32,0.0,0.0,75,0.00,,---,0.00,VWS V13.01,2013-05-14 07:50:00,
2013-05-14 03:56:00,28.0,21.1,29.77,NNE,32,0.0,0.0,75,0.00,,---,0.00,VWS V13.01,2013-05-14 07:56:00,
2013-05-14 04:01:00,28.2,22.6,29.77,NNE,32,0.0,0.0,79,0.00,,---,0.00,VWS V13.01,2013-05-14 08:01:00,
2013-05-14 04:06:00,28.6,24.1,29.77,NNE,32,0.0,0.0,83,0.00,,---,0.00,VWS V13.01,2013-05-14 08:06:00,
2013-05-14 04:12:00,28.2,23.7,29.77,NNE,32,0.0,0.0,83,0.00,,---,0.00,VWS V13.01,2013-05-14 08:12:00,
2013-05-14 04:17:00,27.7,22.6,29.77,NNE,32,0.0,0.0,81,0.00,,---,0.00,VWS V13.01,2013-05-14 08:17:00,
2013-05-14 04:23:00,27.1,22.4,29.77,NNE,32,0.0,0.0,82,0.00,,---,0.00,VWS V13.01,2013-05-14 08:23:00,
2013-05-14 04:29:00,27.1,23.0,29.77,NNE,32,0.0,0.0,84,0.00,,---,0.00,VWS V13.01,2013-05-14 08:29:00,
2013-05-14 04:35:00,27.7,23.8,29.77,NNE,32,0.0,0.0,85,0.00,,---,0.00,VWS V13.01,2013-05-14 08:35:00,
2013-05-14 04:40:00,28.2,24.3,29.77,NNE,32,0.0,0.0,85,0.00,,---,0.00,VWS V13.01,2013-05-14 08:40:00,
2013-05-14 04:45:00,28.2,24.0,29.77,NNE,32,0.0,0.0,84,0.00,,---,0.00,VWS V13.01,2013-05-14 08:45:00,
2013-05-14 04:52:00,27.9,23.1,29.77,NNE,32,0.0,0.0,82,0.00,,---,0.00,VWS V13.01,2013-05-14 08:52:00,
2013-05-14 04:57:00,27.5,22.1,29.77,NNE,32,0.0,0.0,80,0.00,,---,0.00,VWS V13.01,2013-05-14 08:57:00,
2013-05-14 05:04:00,28.0,23.3,29.80,NNE,32,0.0,0.0,82,0.00,,---,0.00,VWS V13.01,2013-05-14 09:04:00,
2013-05-14 05:10:00,28.4,24.8,29.80,NNE,32,0.0,0.0,86,0.00,,---,0.00,VWS V13.01,2013-05-14 09:10:00,
2013-05-14 05:16:00,28.4,25.3,29.80,NNE,32,0.0,0.0,88,0.00,,---,0.00,VWS V13.01,2013-05-14 09:16:00,
2013-05-14 05:21:00,28.0,24.4,29.80,NNE,32,0.0,0.0,86,0.00,,---,0.00,VWS V13.01,2013-05-14 09:21:00,
2013-05-14 05:26:00,28.2,24.3,29.80,NNE,32,0.0,0.0,85,0.00,,---,0.00,VWS V13.01,2013-05-14 09:26:00,
2013-05-14 05:31:00,28.0,24.4,29.80,NNE,32,0.0,0.0,86,0.00,,---,0.00,VWS V13.01,2013-05-14 09:31:00,
2013-05-14 05:37:00,27.9,24.0,29.80,NNE,32,0.0,0.0,85,0.00,,---,0.00,VWS V13.01,2013-05-14 09:37:00,
2013-05-14 05:43:00,28.0,23.5,29.80,NNE,32,0.0,0.0,83,0.00,,---,0.00,VWS V13.01,2013-05-14 09:43:00,
2013-05-14 05:48:00,28.0,23.0,29.80,NNE,32,0.0,0.0,81,0.00,,---,0.00,VWS V13.01,2013-05-14 09:48:00,
2013-05-14 05:54:00,27.9,22.8,29.80,NNE,32,0.0,0.0,81,0.00,,---,0.00,VWS V13.01,2013-05-14 09:54:00,
2013-05-14 06:00:00,27.9,23.1,29.80,NNE,32,0.0,0.0,82,0.00,,---,0.00,VWS V13.01,2013-05-14 10:00:00,
2013-05-14 06:06:00,28.0,23.5,29.80,NNE,32,0.0,0.0,83,0.00,,---,0.00,VWS V13.01,2013-05-14 10:06:00,
2013-05-14 06:12:00,28.4,24.5,29.80,NNE,32,0.0,0.0,85,0.00,,---,0.00,VWS V13.01,2013-05-14 10:12:00,
2013-05-14 06:18:00,29.3,25.4,29.80,NNE,32,0.0,0.0,85,0.00,,---,0.00,VWS V13.01,2013-05-14 10:18:00,
2013-05-14 06:24:00,30.2,26.8,29.80,NNE,32,0.0,0.0,87,0.00,,---,0.00,VWS V13.01,2013-05-14 10:24:00,
2013-05-14 06:29:00,31.6,27.9,29.80,NNE,32,0.0,0.0,86,0.00,,---,0.00,VWS V13.01,2013-05-14 10:29:00,
2013-05-14 06:35:00,34.2,29.5,29.80,NNE,32,0.0,0.0,83,0.00,,---,0.00,VWS V13.01,2013-05-14 10:35:00,
2013-05-14 06:42:00,34.3,26.6,29.80,North,353,3.4,4.5,73,0.00,,---,0.00,VWS V13.01,2013-05-14 10:42:00,
2013-05-14 06:48:00,34.9,13.0,29.80,NNE,15,4.0,5.4,40,0.00,,---,0.00,VWS V13.01,2013-05-14 10:48:00,
2013-05-14 06:54:00,36.0,10.3,29.80,North,2,0.0,0.0,34,0.00,,---,0.00,VWS V13.01,2013-05-14 10:54:00,
2013-05-14 06:59:00,36.7,10.3,29.80,NNW,344,0.0,0.0,33,0.00,,---,0.00,VWS V13.01,2013-05-14 10:59:00,
2013-05-14 07:04:00,37.9,9.3,29.80,NNW,333,6.0,8.1,30,0.00,,---,0.00,VWS V13.01,2013-05-14 11:04:00,
2013-05-14 07:09:00,39.2,9.6,29.80,North,357,0.0,0.0,29,0.00,,---,0.00,VWS V13.01,2013-05-14 11:09:00,
2013-05-14 07:15:00,38.3,6.4,29.83,North,353,8.7,11.6,26,0.00,,---,0.00,VWS V13.01,2013-05-14 11:15:00,
2013-05-14 07:20:00,39.4,4.7,29.83,NNE,24,9.4,12.5,23,0.00,,---,0.00,VWS V13.01,2013-05-14 11:20:00,
2013-05-14 07:25:00,39.9,5.1,29.83,North,357,8.1,10.7,23,0.00,,---,0.00,VWS V13.01,2013-05-14 11:25:00,
2013-05-14 07:31:00,41.2,6.2,29.83,NNW,348,4.0,5.4,23,0.00,,---,0.00,VWS V13.01,2013-05-14 11:31:00,
2013-05-14 07:36:00,41.5,6.5,29.83,NNW,337,4.7,6.3,23,0.00,,---,0.00,VWS V13.01,2013-05-14 11:36:00,
2013-05-14 07:42:00,41.7,4.7,29.83,North,350,9.4,12.5,21,0.00,,---,0.00,VWS V13.01,2013-05-14 11:42:00,
2013-05-14 07:47:00,42.1,5.0,29.83,NW,315,4.7,6.3,21,0.00,,---,0.00,VWS V13.01,2013-05-14 11:47:00,
2013-05-14 07:52:00,42.8,4.5,29.83,NNW,346,6.0,8.1,20,0.00,,---,0.00,VWS V13.01,2013-05-14 11:52:00,
2013-05-14 07:58:00,44.2,5.7,29.83,North,0,5.4,7.2,20,0.00,,---,0.00,VWS V13.01,2013-05-14 11:58:00,
2013-05-14 08:04:00,43.5,5.1,29.83,NW,306,6.0,8.1,20,0.00,,---,0.00,VWS V13.01,2013-05-14 12:04:00,
2013-05-14 08:10:00,43.9,5.4,29.83,NW,318,9.4,12.5,20,0.00,,---,0.00,VWS V13.01,2013-05-14 12:10:00,
2013-05-14 08:16:00,45.0,6.3,29.83,NW,325,4.7,6.3,20,0.00,,---,0.00,VWS V13.01,2013-05-14 12:16:00,
2013-05-14 08:22:00,45.0,6.3,29.83,NW,323,8.1,10.7,20,0.00,,---,0.00,VWS V13.01,2013-05-14 12:22:00,
2013-05-14 08:27:00,46.4,6.4,29.83,NW,316,8.1,10.7,19,0.00,,---,0.00,VWS V13.01,2013-05-14 12:27:00,
2013-05-14 08:33:00,47.8,7.6,29.83,WNW,283,6.0,8.1,19,0.00,,---,0.00,VWS V13.01,2013-05-14 12:33:00,
2013-05-14 08:39:00,47.1,7.0,29.83,NW,321,6.0,8.1,19,0.00,,---,0.00,VWS V13.01,2013-05-14 12:39:00,
2013-05-14 08:46:00,47.3,7.1,29.80,North,353,10.1,13.4,19,0.00,,---,0.00,VWS V13.01,2013-05-14 12:46:00,
2013-05-14 08:51:00,48.4,8.0,29.80,West,260,4.0,5.4,19,0.00,,---,0.00,VWS V13.01,2013-05-14 12:51:00,
2013-05-14 08:57:00,49.5,8.9,29.80,NNE,12,5.4,7.2,19,0.00,,---,0.00,VWS V13.01,2013-05-14 12:57:00,
2013-05-14 09:03:00,48.9,8.5,29.80,WNW,301,4.7,6.3,19,0.00,,---,0.00,VWS V13.01,2013-05-14 13:03:00,
2013-05-14 09:10:00,50.4,9.7,29.80,NW,312,7.4,9.8,19,0.00,,---,0.00,VWS V13.01,2013-05-14 13:10:00,
2013-05-14 09:16:00,49.8,9.2,29.80,NW,315,6.0,8.1,19,0.00,,---,0.00,VWS V13.01,2013-05-14 13:16:00,
2013-05-14 09:21:00,48.9,8.5,29.80,NNW,344,12.1,16.1,19,0.00,,---,0.00,VWS V13.01,2013-05-14 13:21:00,
2013-05-14 09:26:00,51.6,10.7,29.80,NNW,340,9.4,12.5,19,0.00,,---,0.00,VWS V13.01,2013-05-14 13:26:00,
2013-05-14 09:32:00,51.1,10.3,29.80,North,1,8.1,10.7,19,0.00,,---,0.00,VWS V13.01,2013-05-14 13:32:00,
2013-05-14 09:37:00,53.1,10.7,29.80,NNW,329,9.4,12.5,18,0.00,,---,0.00,VWS V13.01,2013-05-14 13:37:00,
2013-05-14 09:42:00,50.5,9.8,29.80,NNW,338,9.4,12.5,19,0.00,,---,0.00,VWS V13.01,2013-05-14 13:42:00,
2013-05-14 09:47:00,51.4,10.6,29.80,NNE,23,11.4,15.2,19,0.00,,---,0.00,VWS V13.01,2013-05-14 13:47:00,
2013-05-14 09:53:00,52.9,10.6,29.80,NW,322,8.1,10.7,18,0.00,,---,0.00,VWS V13.01,2013-05-14 13:53:00,
2013-05-14 09:59:00,52.2,10.0,29.80,North,357,5.4,7.2,18,0.00,,---,0.00,VWS V13.01,2013-05-14 13:59:00,
2013-05-14 10:04:00,53.6,11.1,29.80,North,357,4.0,5.4,18,0.00,,---,0.00,VWS V13.01,2013-05-14 14:04:00,
2013-05-14 10:09:00,52.7,10.4,29.80,North,9,5.4,7.2,18,0.00,,---,0.00,VWS V13.01,2013-05-14 14:09:00,
2013-05-14 10:14:00,54.1,11.6,29.80,North,0,4.7,6.3,18,0.00,,---,0.00,VWS V13.01,2013-05-14 14:14:00,
2013-05-14 10:20:00,53.6,11.1,29.80,North,353,8.1,10.7,18,0.00,,---,0.00,VWS V13.01,2013-05-14 14:20:00,
2013-05-14 10:25:00,53.4,11.0,29.80,NNE,33,9.4,12.5,18,0.00,,---,0.00,VWS V13.01,2013-05-14 14:25:00,
2013-05-14 10:31:00,54.1,11.6,29.77,North,1,15.8,21.0,18,0.00,,---,0.00,VWS V13.01,2013-05-14 14:31:00,
2013-05-14 10:38:00,55.6,11.5,29.77,NW,326,6.0,8.1,17,0.00,,---,0.00,VWS V13.01,2013-05-14 14:38:00,
2013-05-14 10:43:00,58.6,14.0,29.77,NW,309,0.0,0.0,17,0.00,,---,0.00,VWS V13.01,2013-05-14 14:43:00,
2013-05-14 10:49:00,56.1,11.9,29.77,SW,223,0.0,0.0,17,0.00,,---,0.00,VWS V13.01,2013-05-14 14:49:00,
2013-05-14 10:54:00,52.3,10.1,29.77,North,1,8.1,10.7,18,0.00,,---,0.00,VWS V13.01,2013-05-14 14:54:00,
2013-05-14 11:00:00,50.9,10.1,29.77,NNE,25,4.0,5.4,19,0.00,,---,0.00,VWS V13.01,2013-05-14 15:00:00,
2013-05-14 11:05:00,55.9,11.8,29.77,WNW,302,4.0,5.4,17,0.00,,---,0.00,VWS V13.01,2013-05-14 15:05:00,
2013-05-14 11:10:00,53.8,11.3,29.77,North,4,9.4,12.5,18,0.00,,---,0.00,VWS V13.01,2013-05-14 15:10:00,
2013-05-14 11:15:00,55.6,11.5,29.77,NW,320,6.7,8.9,17,0.00,,---,0.00,VWS V13.01,2013-05-14 15:15:00,
2013-05-14 11:20:00,52.0,9.8,29.77,WNW,286,12.4,16.6,18,0.00,,---,0.00,VWS V13.01,2013-05-14 15:20:00,
2013-05-14 11:26:00,52.7,10.4,29.77,WNW,288,9.4,12.5,18,0.00,,---,0.00,VWS V13.01,2013-05-14 15:26:00,
2013-05-14 11:32:00,58.8,14.1,29.77,WNW,287,4.0,5.4,17,0.00,,---,0.00,VWS V13.01,2013-05-14 15:32:00,
2013-05-14 11:38:00,53.1,10.7,29.77,North,353,12.4,16.6,18,0.00,,---,0.00,VWS V13.01,2013-05-14 15:38:00,
2013-05-14 11:43:00,55.9,11.8,29.77,NW,308,0.0,0.0,17,0.00,,---,0.00,VWS V13.01,2013-05-14 15:43:00,
2013-05-14 11:48:00,61.7,15.1,29.77,NNW,334,4.7,6.3,16,0.00,,---,0.00,VWS V13.01,2013-05-14 15:48:00,
2013-05-14 11:54:00,55.6,11.5,29.77,NNW,334,7.4,9.8,17,0.00,,---,0.00,VWS V13.01,2013-05-14 15:54:00,
2013-05-14 12:00:00,54.7,12.0,29.77,NNE,21,11.4,15.2,18,0.00,,---,0.00,VWS V13.01,2013-05-14 16:00:00,
2013-05-14 12:05:00,55.2,12.5,29.77,North,357,6.0,8.1,18,0.00,,---,0.00,VWS V13.01,2013-05-14 16:05:00,
2013-05-14 12:12:00,57.4,12.9,29.77,NNW,345,8.7,11.6,17,0.00,,---,0.00,VWS V13.01,2013-05-14 16:12:00,
2013-05-14 12:17:00,58.1,13.5,29.77,North,357,4.7,6.3,17,0.00,,---,0.00,VWS V13.01,2013-05-14 16:17:00,
2013-05-14 12:23:00,56.3,12.1,29.77,NW,316,12.4,16.6,17,0.00,,---,0.00,VWS V13.01,2013-05-14 16:23:00,
2013-05-14 12:29:00,55.6,11.5,29.77,SW,214,4.7,6.3,17,0.00,,---,0.00,VWS V13.01,2013-05-14 16:29:00,
2013-05-14 12:35:00,56.8,12.5,29.77,SE,129,0.0,0.0,17,0.00,,---,0.00,VWS V13.01,2013-05-14 16:35:00,
2013-05-14 12:42:00,62.4,15.7,29.77,SSW,197,3.4,4.5,16,0.00,,---,0.00,VWS V13.01,2013-05-14 16:42:00,
2013-05-14 12:47:00,62.2,15.5,29.77,North,357,11.4,15.2,16,0.00,,---,0.00,VWS V13.01,2013-05-14 16:47:00,
2013-05-14 12:53:00,57.4,12.9,29.77,NNW,348,8.7,11.6,17,0.00,,---,0.00,VWS V13.01,2013-05-14 16:53:00,
2013-05-14 12:59:00,61.0,14.5,29.74,WNW,286,6.0,8.1,16,0.00,,---,0.00,VWS V13.01,2013-05-14 16:59:00,
2013-05-14 13:05:00,63.3,16.4,29.74,NNE,19,5.4,7.2,16,0.00,,---,0.00,VWS V13.01,2013-05-14 17:05:00,
2013-05-14 13:10:00,62.2,15.5,29.74,ENE,58,3.4,4.5,16,0.00,,---,0.00,VWS V13.01,2013-05-14 17:10:00,
2013-05-14 13:16:00,66.4,17.4,29.74,West,276,0.0,0.0,15,0.00,,---,0.00,VWS V13.01,2013-05-14 17:16:00,
2013-05-14 13:21:00,65.8,16.9,29.74,NE,49,5.4,7.2,15,0.00,,---,0.00,VWS V13.01,2013-05-14 17:21:00,
2013-05-14 13:26:00,60.6,15.6,29.74,NW,315,5.4,7.2,17,0.00,,---,0.00,VWS V13.01,2013-05-14 17:26:00,
2013-05-14 13:32:00,60.1,15.1,29.74,NE,40,4.0,5.4,17,0.00,,---,0.00,VWS V13.01,2013-05-14 17:32:00,
2013-05-14 13:38:00,57.9,13.4,29.74,North,357,9.4,12.5,17,0.00,,---,0.00,VWS V13.01,2013-05-14 17:38:00,
2013-05-14 13:43:00,58.6,14.0,29.74,North,6,12.4,16.6,17,0.00,,---,0.00,VWS V13.01,2013-05-14 17:43:00,
2013-05-14 13:48:00,57.6,13.1,29.74,NW,314,8.1,10.7,17,0.00,,---,0.00,VWS V13.01,2013-05-14 17:48:00,
2013-05-14 13:54:00,61.3,14.8,29.74,NE,45,0.0,0.0,16,0.00,,---,0.00,VWS V13.01,2013-05-14 17:54:00,
2013-05-14 13:59:00,63.0,16.1,29.74,ENE,70,8.1,10.7,16,0.00,,---,0.00,VWS V13.01,2013-05-14 17:59:00,
2013-05-14 14:04:00,65.5,16.6,29.74,NE,54,3.4,4.5,15,0.00,,---,0.00,VWS V13.01,2013-05-14 18:04:00,
2013-05-14 14:10:00,61.3,14.8,29.74,ENE,60,0.0,0.0,16,0.00,,---,0.00,VWS V13.01,2013-05-14 18:10:00,
2013-05-14 14:15:00,59.9,15.0,29.74,North,3,6.0,8.1,17,0.00,,---,0.00,VWS V13.01,2013-05-14 18:15:00,
2013-05-14 14:22:00,59.0,14.3,29.74,NW,318,7.4,9.8,17,0.00,,---,0.00,VWS V13.01,2013-05-14 18:22:00,
2013-05-14 14:27:00,61.2,14.6,29.74,North,353,13.1,17.4,16,0.00,,---,0.00,VWS V13.01,2013-05-14 18:27:00,
2013-05-14 14:32:00,61.9,15.2,29.74,North,353,8.1,10.7,16,0.00,,---,0.00,VWS V13.01,2013-05-14 18:32:00,
2013-05-14 14:38:00,62.1,15.4,29.74,ENE,69,0.0,0.0,16,0.00,,---,0.00,VWS V13.01,2013-05-14 18:38:00,
2013-05-14 14:44:00,58.5,13.8,29.74,North,10,3.4,4.5,17,0.00,,---,0.00,VWS V13.01,2013-05-14 18:44:00,
2013-05-14 14:49:00,57.4,12.9,29.74,North,357,12.4,16.6,17,0.00,,---,0.00,VWS V13.01,2013-05-14 18:49:00,
2013-05-14 14:54:00,63.1,16.2,29.74,NW,315,13.1,17.4,16,0.00,,---,0.00,VWS V13.01,2013-05-14 18:54:00,
2013-05-14 15:00:00,64.0,17.0,29.74,North,3,9.4,12.5,16,0.00,,---,0.00,VWS V13.01,2013-05-14 19:00:00,
2013-05-14 15:05:00,62.6,15.8,29.74,West,273,7.4,9.8,16,0.00,,---,0.00,VWS V13.01,2013-05-14 19:05:00,
2013-05-14 15:11:00,60.4,15.4,29.74,NNW,348,7.4,9.8,17,0.00,,---,0.00,VWS V13.01,2013-05-14 19:11:00,
2013-05-14 15:16:00,63.9,16.8,29.74,NNW,328,4.0,5.4,16,0.00,,---,0.00,VWS V13.01,2013-05-14 19:16:00,
2013-05-14 15:22:00,62.4,15.7,29.74,NNE,18,16.4,21.9,16,0.00,,---,0.00,VWS V13.01,2013-05-14 19:22:00,
2013-05-14 15:27:00,65.8,16.9,29.74,NNW,344,8.1,10.7,15,0.00,,---,0.00,VWS V13.01,2013-05-14 19:27:00,
2013-05-14 15:33:00,65.7,16.8,29.71,North,353,7.4,9.8,15,0.00,,---,0.00,VWS V13.01,2013-05-14 19:33:00,
2013-05-14 15:38:00,61.2,14.6,29.71,NE,48,16.4,21.9,16,0.00,,---,0.00,VWS V13.01,2013-05-14 19:38:00,
2013-05-14 15:43:00,60.4,15.4,29.71,North,2,12.1,16.1,17,0.00,,---,0.00,VWS V13.01,2013-05-14 19:43:00,
2013-05-14 15:48:00,63.5,16.5,29.71,NE,41,9.4,12.5,16,0.00,,---,0.00,VWS V13.01,2013-05-14 19:48:00,
2013-05-14 15:54:00,62.2,15.5,29.71,NE,45,5.4,7.2,16,0.00,,---,0.00,VWS V13.01,2013-05-14 19:54:00,
2013-05-14 15:59:00,60.3,15.3,29.71,North,0,6.0,8.1,17,0.00,,---,0.00,VWS V13.01,2013-05-14 19:59:00,
2013-05-14 16:06:00,65.1,16.4,29.71,NW,316,4.7,6.3,15,0.00,,---,0.00,VWS V13.01,2013-05-14 20:06:00,
2013-05-14 16:12:00,68.5,19.1,29.71,NE,55,0.0,0.0,15,0.00,,---,0.00,VWS V13.01,2013-05-14 20:12:00,
2013-05-14 16:18:00,67.8,18.5,29.71,NNE,29,6.0,8.1,15,0.00,,---,0.00,VWS V13.01,2013-05-14 20:18:00,
2013-05-14 16:23:00,64.4,15.8,29.71,SE,126,0.0,0.0,15,0.00,,---,0.00,VWS V13.01,2013-05-14 20:23:00,
2013-05-14 16:29:00,66.0,17.1,29.71,North,7,4.7,6.3,15,0.00,,---,0.00,VWS V13.01,2013-05-14 20:29:00,
2013-05-14 16:35:00,64.6,15.9,29.71,NNW,337,4.0,5.4,15,0.00,,---,0.00,VWS V13.01,2013-05-14 20:35:00,
2013-05-14 16:41:00,67.1,17.9,29.71,NW,309,4.0,5.4,15,0.00,,---,0.00,VWS V13.01,2013-05-14 20:41:00,
2013-05-14 16:47:00,64.4,15.8,29.71,North,3,10.7,14.3,15,0.00,,---,0.00,VWS V13.01,2013-05-14 20:47:00,
2013-05-14 16:52:00,66.0,17.1,29.71,NNE,25,0.0,0.0,15,0.00,,---,0.00,VWS V13.01,2013-05-14 20:52:00,
2013-05-14 16:57:00,65.1,16.4,29.71,WNW,284,6.0,8.1,15,0.00,,---,0.00,VWS V13.01,2013-05-14 20:57:00,
2013-05-14 17:04:00,65.1,16.4,29.71,WNW,292,4.7,6.3,15,0.00,,---,0.00,VWS V13.01,2013-05-14 21:04:00,
2013-05-14 17:10:00,65.1,16.4,29.71,South,182,0.0,0.0,15,0.00,,---,0.00,VWS V13.01,2013-05-14 21:10:00,
2013-05-14 17:15:00,66.0,17.1,29.68,WNW,283,4.0,5.4,15,0.00,,---,0.00,VWS V13.01,2013-05-14 21:15:00,
2013-05-14 17:20:00,65.8,16.9,29.68,NNW,331,8.1,10.7,15,0.00,,---,0.00,VWS V13.01,2013-05-14 21:20:00,
2013-05-14 17:26:00,63.1,16.2,29.68,NNE,17,8.1,10.7,16,0.00,,---,0.00,VWS V13.01,2013-05-14 21:26:00,
2013-05-14 17:32:00,63.9,16.8,29.68,WNW,303,5.4,7.2,16,0.00,,---,0.00,VWS V13.01,2013-05-14 21:32:00,
2013-05-14 17:37:00,64.4,15.8,29.68,West,274,6.0,8.1,15,0.00,,---,0.00,VWS V13.01,2013-05-14 21:37:00,
2013-05-14 17:44:00,63.9,16.8,29.68,North,9,8.7,11.6,16,0.00,,---,0.00,VWS V13.01,2013-05-14 21:44:00,
2013-05-14 17:50:00,65.3,16.5,29.68,NNW,348,4.7,6.3,15,0.00,,---,0.00,VWS V13.01,2013-05-14 21:50:00,
2013-05-14 17:55:00,63.7,16.7,29.68,NNW,331,4.7,6.3,16,0.00,,---,0.00,VWS V13.01,2013-05-14 21:55:00,
2013-05-14 18:01:00,62.1,15.4,29.68,NW,319,8.7,11.6,16,0.00,,---,0.00,VWS V13.01,2013-05-14 22:01:00,
2013-05-14 18:07:00,62.2,15.5,29.68,North,3,11.4,15.2,16,0.00,,---,0.00,VWS V13.01,2013-05-14 22:07:00,
2013-05-14 18:13:00,62.6,15.8,29.68,NE,48,11.4,15.2,16,0.00,,---,0.00,VWS V13.01,2013-05-14 22:13:00,
2013-05-14 18:20:00,61.3,14.8,29.68,NW,321,8.7,11.6,16,0.00,,---,0.00,VWS V13.01,2013-05-14 22:20:00,
2013-05-14 18:25:00,61.7,15.1,29.68,NNW,337,4.7,6.3,16,0.00,,---,0.00,VWS V13.01,2013-05-14 22:25:00,
2013-05-14 18:30:00,61.5,14.9,29.68,NW,324,6.0,8.1,16,0.00,,---,0.00,VWS V13.01,2013-05-14 22:30:00,
2013-05-14 18:35:00,61.9,15.2,29.68,NW,324,8.7,11.6,16,0.00,,---,0.00,VWS V13.01,2013-05-14 22:35:00,
2013-05-14 18:41:00,61.5,14.9,29.68,North,357,6.0,8.1,16,0.00,,---,0.00,VWS V13.01,2013-05-14 22:41:00,
2013-05-14 18:46:00,61.2,14.6,29.68,North,350,8.7,11.6,16,0.00,,---,0.00,VWS V13.01,2013-05-14 22:46:00,
2013-05-14 18:51:00,61.3,14.8,29.68,WNW,293,6.0,8.1,16,0.00,,---,0.00,VWS V13.01,2013-05-14 22:51:00,
2013-05-14 18:56:00,60.1,15.1,29.68,NNW,332,8.1,10.7,17,0.00,,---,0.00,VWS V13.01,2013-05-14 22:56:00,
2013-05-14 19:01:00,59.0,14.3,29.68,WNW,295,9.4,12.5,17,0.00,,---,0.00,VWS V13.01,2013-05-14 23:01:00,
2013-05-14 19:08:00,59.7,14.9,29.68,WNW,300,5.4,7.2,17,0.00,,---,0.00,VWS V13.01,2013-05-14 23:08:00,
2013-05-14 19:13:00,59.7,14.9,29.68,NNW,330,4.0,5.4,17,0.00,,---,0.00,VWS V13.01,2013-05-14 23:13:00,
2013-05-14 19:18:00,58.5,13.8,29.68,NW,317,9.4,12.5,17,0.00,,---,0.00,VWS V13.01,2013-05-14 23:18:00,
2013-05-14 19:24:00,59.2,14.4,29.68,WNW,302,8.7,11.6,17,0.00,,---,0.00,VWS V13.01,2013-05-14 23:24:00,
2013-05-14 19:29:00,57.4,12.9,29.68,WNW,303,6.0,8.1,17,0.00,,---,0.00,VWS V13.01,2013-05-14 23:29:00,
2013-05-14 19:35:00,55.9,11.8,29.68,NW,317,0.0,0.0,17,0.00,,---,0.00,VWS V13.01,2013-05-14 23:35:00,
2013-05-14 19:41:00,55.2,12.5,29.68,WNW,293,4.7,6.3,18,0.00,,---,0.00,VWS V13.01,2013-05-14 23:41:00,
2013-05-14 19:46:00,54.1,11.6,29.68,NW,318,4.0,5.4,18,0.00,,---,0.00,VWS V13.01,2013-05-14 23:46:00,
2013-05-14 19:52:00,54.0,11.4,29.68,WNW,302,4.7,6.3,18,0.00,,---,0.00,VWS V13.01,2013-05-14 23:52:00,
2013-05-14 19:58:00,53.1,10.7,29.68,WNW,285,0.0,0.0,18,0.00,,---,0.00,VWS V13.01,2013-05-14 23:58:00,
2013-05-14 20:04:00,52.5,10.2,29.68,North,353,5.4,7.2,18,0.00,,---,0.00,VWS V13.01,2013-05-15 00:04:00,
2013-05-14 20:10:00,52.0,9.8,29.68,NW,318,4.0,5.4,18,0.00,,---,0.00,VWS V13.01,2013-05-15 00:10:00,
2013-05-14 20:15:00,51.3,10.4,29.68,NW,312,0.0,0.0,19,0.00,,---,0.00,VWS V13.01,2013-05-15 00:15:00,
2013-05-14 20:21:00,50.4,9.7,29.68,NW,310,0.0,0.0,19,0.00,,---,0.00,VWS V13.01,2013-05-15 00:21:00,
2013-05-14 20:26:00,49.6,9.1,29.68,NNW,330,0.0,0.0,19,0.00,,---,0.00,VWS V13.01,2013-05-15 00:26:00,
2013-05-14 20:32:00,49.3,8.8,29.68,NNW,327,4.0,5.4,19,0.00,,---,0.00,VWS V13.01,2013-05-15 00:32:00,
2013-05-14 20:37:00,48.6,8.2,29.68,NW,325,0.0,0.0,19,0.00,,---,0.00,VWS V13.01,2013-05-15 00:37:00,
2013-05-14 20:42:00,48.2,7.9,29.68,NW,319,0.0,0.0,19,0.00,,---,0.00,VWS V13.01,2013-05-15 00:42:00,
2013-05-14 20:47:00,47.5,7.3,29.68,NW,320,0.0,0.0,19,0.00,,---,0.00,VWS V13.01,2013-05-15 00:47:00,
2013-05-14 20:54:00,46.6,6.5,29.68,NW,320,0.0,0.0,19,0.00,,---,0.00,VWS V13.01,2013-05-15 00:54:00,
2013-05-14 21:00:00,46.0,7.2,29.71,NW,322,0.0,0.0,20,0.00,,---,0.00,VWS V13.01,2013-05-15 01:00:00,
2013-05-14 21:05:00,44.8,6.2,29.71,NW,322,0.0,0.0,20,0.00,,---,0.00,VWS V13.01,2013-05-15 01:05:00,
2013-05-14 21:12:00,44.2,5.7,29.71,NW,322,0.0,0.0,20,0.00,,---,0.00,VWS V13.01,2013-05-15 01:12:00,
2013-05-14 21:18:00,44.4,5.9,29.71,NW,322,0.0,0.0,20,0.00,,---,0.00,VWS V13.01,2013-05-15 01:18:00,
2013-05-14 21:23:00,45.1,6.5,29.71,NNW,335,0.0,0.0,20,0.00,,---,0.00,VWS V13.01,2013-05-15 01:23:00,
2013-05-14 21:29:00,45.7,6.9,29.71,NNW,335,0.0,0.0,20,0.00,,---,0.00,VWS V13.01,2013-05-15 01:29:00,
2013-05-14 21:35:00,45.9,7.1,29.71,NNW,334,0.0,0.0,20,0.00,,---,0.00,VWS V13.01,2013-05-15 01:35:00,
2013-05-14 21:42:00,45.3,6.6,29.71,NNW,334,0.0,0.0,20,0.00,,---,0.00,VWS V13.01,2013-05-15 01:42:00,
2013-05-14 21:47:00,45.1,6.5,29.71,NNW,335,0.0,0.0,20,0.00,,---,0.00,VWS V13.01,2013-05-15 01:47:00,
2013-05-14 21:53:00,44.4,5.9,29.71,NNW,335,0.0,0.0,20,0.00,,---,0.00,VWS V13.01,2013-05-15 01:53:00,
2013-05-14 21:59:00,44.1,5.6,29.71,NNW,334,0.0,0.0,20,0.00,,---,0.00,VWS V13.01,2013-05-15 01:59:00,
2013-05-14 22:04:00,44.1,5.6,29.71,NNW,334,0.0,0.0,20,0.00,,---,0.00,VWS V13.01,2013-05-15 02:04:00,
2013-05-14 22:10:00,44.1,5.6,29.71,NNW,348,0.0,0.0,20,0.00,,---,0.00,VWS V13.01,2013-05-15 02:10:00,
2013-05-14 22:16:00,44.2,5.7,29.71,North,350,0.0,0.0,20,0.00,,---,0.00,VWS V13.01,2013-05-15 02:16:00,
2013-05-14 22:22:00,43.7,5.3,29.71,North,350,0.0,0.0,20,0.00,,---,0.00,VWS V13.01,2013-05-15 02:22:00,
2013-05-14 22:27:00,43.0,4.7,29.71,North,350,0.0,0.0,20,0.00,,---,0.00,VWS V13.01,2013-05-15 02:27:00,
2013-05-14 22:33:00,42.4,5.3,29.71,North,350,0.0,0.0,21,0.00,,---,0.00,VWS V13.01,2013-05-15 02:33:00,
2013-05-14 22:39:00,42.4,5.3,29.71,North,350,0.0,0.0,21,0.00,,---,0.00,VWS V13.01,2013-05-15 02:39:00,
2013-05-14 22:44:00,41.7,4.7,29.71,North,350,0.0,0.0,21,0.00,,---,0.00,VWS V13.01,2013-05-15 02:44:00,
2013-05-14 22:50:00,41.2,4.2,29.71,North,350,0.0,0.0,21,0.00,,---,0.00,VWS V13.01,2013-05-15 02:50:00,
2013-05-14 22:56:00,40.8,3.9,29.71,North,350,0.0,0.0,21,0.00,,---,0.00,VWS V13.01,2013-05-15 02:56:00,
2013-05-14 23:02:00,41.0,4.1,29.71,North,350,0.0,0.0,21,0.00,,---,0.00,VWS V13.01,2013-05-15 03:02:00,
2013-05-14 23:08:00,40.6,3.8,29.71,North,350,0.0,0.0,21,0.00,,---,0.00,VWS V13.01,2013-05-15 03:08:00,
2013-05-14 23:13:00,40.1,3.3,29.71,North,350,0.0,0.0,21,0.00,,---,0.00,VWS V13.01,2013-05-15 03:13:00,
2013-05-14 23:19:00,39.6,2.9,29.71,North,350,0.0,0.0,21,0.00,,---,0.00,VWS V13.01,2013-05-15 03:19:00,
2013-05-14 23:24:00,38.7,2.1,29.71,North,350,0.0,0.0,21,0.00,,---,0.00,VWS V13.01,2013-05-15 03:24:00,
2013-05-14 23:30:00,38.1,4.5,29.71,North,350,0.0,0.0,24,0.00,,---,0.00,VWS V13.01,2013-05-15 03:30:00,
2013-05-14 23:36:00,37.8,4.2,29.71,North,350,0.0,0.0,24,0.00,,---,0.00,VWS V13.01,2013-05-15 03:36:00,
2013-05-14 23:41:00,37.0,6.2,29.71,North,350,0.0,0.0,27,0.00,,---,0.00,VWS V13.01,2013-05-15 03:41:00,
2013-05-14 23:46:00,36.5,5.7,29.71,North,350,0.0,0.0,27,0.00,,---,0.00,VWS V13.01,2013-05-15 03:46:00,
2013-05-14 23:51:00,36.3,7.9,29.71,North,350,0.0,0.0,30,0.00,,---,0.00,VWS V13.01,2013-05-15 03:51:00,
2013-05-14 23:56:00,36.7,9.6,29.71,North,350,0.0,0.0,32,0.00,,---,0.00,VWS V13.01,2013-05-15 03:56:00,